Globalstar M072

operational
NORAD ID: 31574 Int'l Des: 2007-020 Owner: GLOB Country: US Constellation: globalstar
LEOCIRCULAR

Über Globalstar M072

Beschreibung wird geladen...

Live-Position

3D-Globus wird geladen...

Nächste Überflüge

Höhenverlauf

Altitude vs Time

uPlot chart will show altitude changes over time

Zweizeiliger Elementsatz

1 31574U 07020D 25278.38635345 -.00000087 00000-0 -42930-4 0 9999
2 31574 51.9941 58.5897 0001543 148.2973 238.3121 11.91652147844609
Epoch: 5. Okt. 2025 • Age: 19 hours

Aktueller Status

Höhe 1729.9 km
Geschwindigkeit 7.01 km/s
Subsatellitenpunkt -36.59°S, 171.19°W
Startdatum 29. Mai 2007
Alter 18.3 years
Typ communications

Technische Details

Klassifizierung Payload
Masse 450.00 kg
Trockenmasse 380.00 kg
Gesamtmasse 450.00 kg
Länge 1.50 m
Durchmesser 0.60 m
Spannweite 12.00 m
Form Box + 2 Pan
Hersteller LOR
Bus-Typ LS-400
Phasenstatus In Orbit
Besitzer/Staat GLOB/US

Große Konstellationen

Loading constellations...